Terminal Aerodrome Forecast
Issued by NWS Missoula, MT

Home | Current Version | Previous Version | Text Only | Print | Product List | Glossary On
Versions: 1 2 3 4 5 6 7 8 9 10 11 12 13 14 15 16
000
FTUS45 KMSO 231732
TAFBTM
TAF
KBTM 231732Z 2318/2418 VRB06KT P6SM BKN050
     FM232000 23020G30KT P6SM VCSH BKN070
     FM240200 23008KT P6SM BKN080=

USA.gov is the U.S. government's official web portal to all federal, state and local government web resources and services.